Weather reports worldwide

Advertisment
Cardiff, Bute Park, United Kingdom (99160): temperature & dewpoint: 03.04.2020 11:00:00 - 09.04.2020 11:00:00 (BST)Cardiff, Bute Park, United Kingdom (99160): temperature -20cm & temperature -100cm: 03.04.2020 11:00:00 - 09.04.2020 11:00:00 (BST)Cardiff, Bute Park, United Kingdom (99160): precipitation: 03.04.2020 11:00:00 - 09.04.2020 11:00:00 (BST)
Date & Time tt [°C] td [°C] tt -20cm [°C] tt -100cm [°C] rr [mm]
09.04.2020 11:00:00 17,2 9,2 - - 0,0
09.04.2020 10:00:00 15,5 8,2 10,7 9,2 0,0
09.04.2020 09:00:00 14,1 7,8 - - 0,0
09.04.2020 08:00:00 10,7 8,7 - - 0,0
09.04.2020 07:00:00 8,4 7,4 - - 0,0
09.04.2020 06:00:00 8,6 7,7 - - 0,0
09.04.2020 05:00:00 8,9 8,0 - - 0,0
09.04.2020 04:00:00 8,6 7,8 - - 0,0
09.04.2020 03:00:00 9,2 8,5 - - 0,0
09.04.2020 02:00:00 9,5 8,6 - - 0,0
09.04.2020 01:00:00 10,1 8,5 - - 0,0
09.04.2020 00:00:00 10,8 9,0 - - 0,0
08.04.2020 23:00:00 12,1 9,4 - - 0,0
08.04.2020 22:00:00 12,6 9,6 - - 0,0
08.04.2020 21:00:00 14,2 9,6 - - 0,0
08.04.2020 20:00:00 16,8 9,7 - - 0,0
08.04.2020 19:00:00 19,4 8,3 - - 0,0
08.04.2020 18:00:00 20,7 7,5 - - 0,0
08.04.2020 17:00:00 21,3 7,4 - - 0,0
08.04.2020 16:00:00 20,6 6,9 - - 0,0
08.04.2020 15:00:00 20,7 6,2 - - 0,0
08.04.2020 14:00:00 19,6 5,5 - - 0,0
08.04.2020 13:00:00 18,4 5,2 - - 0,0
08.04.2020 12:00:00 17,9 5,8 - - 0,0
08.04.2020 11:00:00 16,4 4,5 - - 0,0
08.04.2020 10:00:00 15,2 5,9 10,4 9,0 0,0
08.04.2020 09:00:00 11,2 7,6 - - 0,0
08.04.2020 08:00:00 10,1 7,8 - - 0,0
08.04.2020 07:00:00 9,3 7,2 - - 0,0
08.04.2020 06:00:00 9,4 7,4 - - 0,0
08.04.2020 05:00:00 9,2 6,7 - - 0,0
08.04.2020 04:00:00 8,3 6,1 - - 0,0
08.04.2020 03:00:00 8,4 6,4 - - 0,0
08.04.2020 02:00:00 9,0 6,0 - - 0,0
08.04.2020 01:00:00 11,1 5,6 - - 0,0
08.04.2020 00:00:00 12,1 6,3 - - 0,0
07.04.2020 23:00:00 12,6 6,6 - - 0,0
07.04.2020 22:00:00 13,4 4,4 - - 0,0
07.04.2020 21:00:00 14,4 3,9 - - 0,0
07.04.2020 20:00:00 15,3 3,8 - - 0,0
07.04.2020 19:00:00 16,4 4,4 - - 0,0
07.04.2020 18:00:00 16,9 4,2 - - 0,0
07.04.2020 17:00:00 16,8 3,0 - - 0,0
07.04.2020 16:00:00 17,2 3,8 - - 0,0
07.04.2020 15:00:00 16,6 5,1 - - 0,0
07.04.2020 14:00:00 15,7 5,2 - - 0,0
07.04.2020 13:00:00 15,3 5,8 - - 0,0
07.04.2020 12:00:00 14,6 4,5 - - 0,0
07.04.2020 11:00:00 12,1 5,0 - - 0,0
07.04.2020 10:00:00 10,5 4,9 9,9 8,9 0,0
07.04.2020 09:00:00 7,6 6,7 - - 0,0
07.04.2020 08:00:00 2,9 2,8 - - 0,2
07.04.2020 07:00:00 1,9 1,7 - - 0,0
07.04.2020 06:00:00 1,7 1,4 - - 0,0
07.04.2020 05:00:00 2,1 1,8 - - 0,0
07.04.2020 04:00:00 2,6 2,2 - - 0,0
07.04.2020 03:00:00 2,9 2,4 - - 0,0
07.04.2020 02:00:00 3,8 3,1 - - 0,0
07.04.2020 01:00:00 4,3 3,6 - - 0,0
07.04.2020 00:00:00 5,0 4,1 - - 0,0
06.04.2020 23:00:00 6,1 4,9 - - 0,0
06.04.2020 22:00:00 7,1 4,7 - - 0,0
06.04.2020 21:00:00 8,5 4,5 - - 0,0
06.04.2020 20:00:00 10,4 3,5 - - 0,0
06.04.2020 19:00:00 11,6 2,9 - - 0,0
06.04.2020 18:00:00 13,1 2,4 - - 0,0
06.04.2020 17:00:00 13,9 2,0 - - 0,0
06.04.2020 16:00:00 14,8 4,4 - - 0,0
06.04.2020 15:00:00 14,9 4,9 - - 0,0
06.04.2020 14:00:00 15,1 6,9 - - 0,0
06.04.2020 13:00:00 14,2 6,8 - - 0,0
06.04.2020 12:00:00 13,6 8,6 - - 0,0
06.04.2020 11:00:00 12,9 7,1 - - 0,0
06.04.2020 10:00:00 12,8 8,2 9,9 8,7 0,0
06.04.2020 09:00:00 11,5 8,9 - - 0,0
06.04.2020 08:00:00 9,1 8,2 - - 0,0
06.04.2020 07:00:00 9,1 8,1 - - 0,0
06.04.2020 06:00:00 9,9 8,7 - - 0,0
06.04.2020 05:00:00 10,4 9,2 - - 0,0
06.04.2020 04:00:00 9,9 9,2 - - 0,6
06.04.2020 03:00:00 10,4 9,4 - - 2,8
06.04.2020 02:00:00 12,9 11,5 - - 0,8
06.04.2020 01:00:00 13,5 11,1 - - 0,0
06.04.2020 00:00:00 13,2 10,6 - - 0,0
05.04.2020 23:00:00 14,0 8,9 - - 0,0
05.04.2020 22:00:00 14,3 7,9 - - 0,0
05.04.2020 21:00:00 15,0 7,5 - - 0,0
05.04.2020 20:00:00 16,2 7,3 - - 0,0
05.04.2020 19:00:00 16,5 7,1 - - 0,0
05.04.2020 18:00:00 16,6 7,3 - - 0,0
05.04.2020 17:00:00 16,9 7,4 - - 0,0
05.04.2020 16:00:00 17,1 7,7 - - 0,0
05.04.2020 15:00:00 16,0 7,0 - - 0,0
05.04.2020 14:00:00 17,0 6,9 - - 0,0
05.04.2020 13:00:00 17,4 6,9 - - 0,0
05.04.2020 12:00:00 16,0 5,9 - - 0,0
05.04.2020 11:00:00 14,0 5,9 - - 0,0
05.04.2020 10:00:00 11,7 4,3 9,2 8,7 0,0
05.04.2020 09:00:00 10,8 4,2 - - 0,0
05.04.2020 08:00:00 8,5 3,8 - - 0,0
05.04.2020 07:00:00 5,9 3,3 - - 0,0
05.04.2020 06:00:00 6,0 3,5 - - 0,0
05.04.2020 05:00:00 6,6 3,2 - - 0,0
05.04.2020 04:00:00 7,6 3,1 - - 0,0
05.04.2020 03:00:00 8,3 3,0 - - 0,0
05.04.2020 02:00:00 8,0 3,0 - - 0,0
05.04.2020 01:00:00 8,4 3,3 - - 0,0
05.04.2020 00:00:00 8,7 4,0 - - 0,0
04.04.2020 23:00:00 10,0 3,6 - - 0,0
04.04.2020 22:00:00 11,1 2,8 - - 0,0
04.04.2020 21:00:00 11,9 3,2 - - 0,0
04.04.2020 20:00:00 12,2 4,0 - - 0,0
04.04.2020 19:00:00 13,6 3,2 - - 0,0
04.04.2020 18:00:00 14,7 3,5 - - 0,0
04.04.2020 17:00:00 15,1 4,0 - - 0,0
04.04.2020 16:00:00 15,3 4,3 - - 0,0
04.04.2020 15:00:00 14,7 4,5 - - 0,0
04.04.2020 14:00:00 14,3 6,5 - - 0,0
04.04.2020 13:00:00 13,7 5,7 - - 0,0
04.04.2020 12:00:00 12,2 6,5 - - 0,0
04.04.2020 11:00:00 10,8 7,4 - - 0,0
04.04.2020 10:00:00 9,0 6,6 9,0 8,5 0,0
04.04.2020 09:00:00 8,3 6,5 - - 0,0
04.04.2020 08:00:00 7,4 6,3 - - 0,0
04.04.2020 07:00:00 6,6 6,2 - - 0,0
04.04.2020 06:00:00 6,9 6,4 - - 0,0
04.04.2020 05:00:00 6,0 5,4 - - 0,0
04.04.2020 04:00:00 5,5 5,1 - - 0,0
04.04.2020 03:00:00 4,6 4,4 - - 0,0
04.04.2020 02:00:00 4,0 3,3 - - 0,0
04.04.2020 01:00:00 4,3 3,8 - - 0,0
04.04.2020 00:00:00 4,4 3,6 - - 0,0
03.04.2020 23:00:00 5,4 4,2 - - 0,0
03.04.2020 22:00:00 6,5 4,4 - - 0,0
03.04.2020 21:00:00 8,0 5,1 - - 0,0
03.04.2020 20:00:00 9,3 4,2 - - 0,0
03.04.2020 19:00:00 10,8 4,2 - - 0,0
03.04.2020 18:00:00 12,3 3,6 - - 0,0
03.04.2020 17:00:00 13,1 3,7 - - 0,0
03.04.2020 16:00:00 14,0 3,2 - - 0,0
03.04.2020 15:00:00 13,7 3,3 - - 0,0
03.04.2020 14:00:00 14,2 2,8 - - 0,0
03.04.2020 13:00:00 13,2 2,3 - - 0,0
03.04.2020 12:00:00 11,8 1,7 - - 0,0
03.04.2020 11:00:00 11,2 1,9 - - 0,0

tt = temperature
td = dewpoint
tt -20cm = temperature -20cm
tt -100cm = temperature -100cm
rr = precipitation

Next stations